User: anonymous
Location: Maiden_LMO
(35.5760°N, 81.2120°W)
Time: 14:18:26
(UTC-04:00)
Language:

Cosmos 2278 Rocket - Orbit

View from above orbital plane
View from above orbital plane
View from above satellite
View from above satellite

Ground track
Ground track

The orbit data is extracted from the following two-line orbital elements,

1 23088U 94023B   14273.35797563 -.00000021  00000-0  14021-4 0   381
2 23088 071.0019 201.5877 0003190 209.1922 288.7137 14.14590987 55429
Epoch (UTC): 30 September 2014 08:35:29
Eccentricity: 0.0003190
inclination: 71.0019°
perigee height: 841 km
apogee height: 846 km
right ascension of ascending node: 201.5877°
argument of perigee: 209.1922°
revolutions per day: 14.14590987
mean anomaly at epoch: 288.7137°
orbit number at epoch: 5542

The dashed part of the orbit path shows where the satellite is in the earth's shadow,  

DLR